Location: G�ndlingen
(48.0142°N, 7.6396°E)
Time: 08:05:18
(UTC+00:00)

Okean 3 Rocket - Pass Details

Date: 05 July 2020
Orbit: 614 x 645 km, 82.5° (Epoch: 04 August)

Event Time Altitude Azimuth Distance (km) Brightness Sun altitude
Exits shadow 22:47:01 41° 169° (S) 921 3.9 -18.5°
Maximum altitude 22:48:30 72° 97° (E) 666 3.6 -18.6°
Drops below altitude 10° 22:52:56 10° 13° (NNE) 2,008 7.2 -18.7°
Sets 22:55:10 0° 12° (NNE) 2,915 8.3 -18.8°
